Weather Roundup
Issued by NWS Chicago, IL

Home | Current Version | Previous Version | Graphics & Text | Print | Product List | Glossary On
Versions: 1 2 3 4 5 6 7 8 9 10 11 12 13 14 15 16 17 18 19 20 21 22 23 24 25 26 27 28 29 30 31 32 33 34 35 36 37 38 39 40 41 42 43 44 45 46 47 48 49 50
000
NZUS59 KLOT 230508
HRRLOT

CHICAGO AREA WEATHER ROUNDUP
NATIONAL WEATHER SERVICE CHICAGO/ROMEOVILLE IL
1100 PM CST WED FEB 22 2017

NOTE: "FAIR" INDICATES FEW OR NO CLOUDS BELOW 12,000 FEET WITH NO
SIGNIFICANT WEATHER AND/OR OBSTRUCTIONS TO VISIBILITY.

* THESE STATIONS ARE NOT UNDER NWS QUALITY CONTROL. THEY ALSO MAY NOT
  REPORT WEATHER SUCH AS PRECIPITATION OR FOG.

ILZ005-006-012>014-019>023-230600-
NORTHEAST ILLINOIS

CITY           SKY/WX    TMP DP  RH WIND       PRES   REMARKS
OHARE          CLEAR     59  52  77 SW10G21   29.61S
MIDWAY         CLEAR     60  53  77 SW16G24   29.62S
AURORA         CLEAR     57  51  80 SW13      29.63S
LANSING*       CLEAR     56  55  94 SW13      29.65S
JOLIET*        CLEAR     59  56  88 SW8       29.64F
WAUKEGAN       CLEAR     58  52  80 SW9G24    29.58S
DUPAGE AIRPORT CLEAR     57  51  80 SW16      29.61F
WHEELING       CLEAR     59  51  75 SW14G21   29.61F
KANKAKEE*      CLEAR     55  53  92 S12       29.67S
MORRIS*        CLEAR     58  53  85 SW13      29.64S
LEWIS AIRPORT* CLEAR     57  56  95 SW10      29.64S
NORTHERLY ISL    N/A     60  52  74 SW6         N/A
$$

WIZ051-052-058>065-066-070>072-230600-
SOUTHEAST WISCONSIN

CITY           SKY/WX    TMP DP  RH WIND       PRES   REMARKS
MILWAUKEE      CLEAR     59  52  77 SW16G26   29.55S
KENOSHA*       CLEAR     57  52  83 SW18G28   29.57S
RACINE*        PTCLDY    58  52  80 SW16G24   29.57F
WAUKESHA       CLEAR     54  46  76 SW12G17   29.58R
WEST BEND      CLEAR     55  50  82 W13G18    29.54R
$$

INZ001>003-010>013-019-020-230600-
NORTHWEST INDIANA

CITY           SKY/WX    TMP DP  RH WIND       PRES   REMARKS
GARY*          CLEAR     60  54  78 SW6       29.64S
MICHIGAN CITY* NOT AVBL
RENSSELAER*    NOT AVBL
VALPARAISO     CLEAR     58  54  86 SW13      29.66F
$$

LMZ740>746-230600-
SOUTHERN LAKE MICHIGAN

STATION/POSITION TIME  SKY/WX   TEMP WIND        PRES    VSBY
                                AIR  DIR/SP/G
                 (UTC)          (F)  (DEG/KT/KT) (MB)    (MI)
HARRISON CRIB    0440            61  220/ 20/ 24   N/A
BURNHAM HARBOR   0500            60  230/  7/ 13   N/A
CALUMET HARBOR   0448            58  200/ 10/ 13 1002.9S
BURNS HARBOR     0440            58  200/ 20/ 24 1003.7F
MICHIGAN CITY    0440            59  170/ 16/ 18   N/A
$$

ABBREVIATIONS USED IN REMARKS
   TC - TEMPERATURE IN CELSIUS
  WCI - WIND CHILL INDEX
   HX - HEAT INDEX
  VSB - VISIBILITY
$$




USA.gov is the U.S. government's official web portal to all federal, state and local government web resources and services.